Location: Unspecified
(0.0000°N, 0.0000°E)
Time: 06:24:06
(UTC+00:00)

Explorer 7 - All Passes

Search period start: 02 October 2014 00:00
Search period end: 12 October 2014 00:00
Orbit: 491 x 706 km, 50.3° (Epoch: 30 September)

Date Brightness Start Highest point End Pass type
(mag) Time Alt. Az. Time Alt. Az. Time Alt. Az.
02 Oct - 08:10:23 10° S 08:14:30 31° SE 08:18:49 10° ENE daylight
02 Oct - 09:51:46 10° W 09:55:21 21° NW 09:59:01 10° N daylight
02 Oct - 20:16:22 10° NNW 20:20:19 42° NE 20:24:02 10° SE night (unlit)
03 Oct - 08:20:03 10° SSW 08:24:41 72° SE 08:29:34 10° NE daylight
03 Oct - 20:26:23 10° NW 20:30:31 70° SW 20:34:25 10° SSE visible
04 Oct - 06:52:14 10° SSE 06:54:09 12° SE 06:56:07 10° ESE daylight
04 Oct - 08:30:23 10° SW 08:34:53 48° NW 08:39:37 10° NNE daylight
04 Oct - 18:57:15 10° NNE 18:59:57 16° NE 19:02:32 10° E visible
04 Oct - 20:37:11 10° WNW 20:40:40 26° SW 20:44:00 10° S visible
05 Oct - 07:00:27 10° S 07:04:20 28° SE 07:08:24 10° ENE daylight
05 Oct - 08:41:32 10° WSW 08:45:09 22° NW 08:48:54 10° N daylight
05 Oct - 19:06:13 10° NNW 19:10:13 39° NE 19:13:59 10° ESE visible
05 Oct - 20:49:51 10° WSW 20:50:50 11° SW 20:51:49 10° SW visible
06 Oct - 07:10:01 10° SSW 07:14:30 65° SE 07:19:15 10° NE daylight
06 Oct - 19:16:09 10° NW 19:20:25 79° SW 19:24:26 10° SSE visible
07 Oct - 05:42:55 10° SE 05:43:59 11° SE 05:45:04 10° ESE daylight
07 Oct - 07:20:16 10° SW 07:24:41 53° NW 07:29:22 10° NNE daylight
07 Oct - 17:47:10 10° NNE 17:49:48 16° NE 17:52:20 10° E daylight
07 Oct - 19:26:50 10° WNW 19:30:34 30° SW 19:34:06 10° S visible
08 Oct - 05:50:32 10° S 05:54:09 25° SE 05:57:57 10° ENE daylight
08 Oct - 07:31:18 10° WSW 07:34:56 23° NW 07:38:43 10° N daylight
08 Oct - 17:56:01 10° NNW 18:00:05 36° NE 18:03:54 10° ESE daylight
08 Oct - 19:38:55 10° W 19:40:43 13° SW 19:42:29 10° SSW visible
09 Oct - 05:59:58 10° SSW 06:04:18 58° SE 06:08:55 10° NE daylight
09 Oct - 07:44:40 10° WNW 07:45:15 10° NW 07:45:51 10° NW daylight
09 Oct - 18:05:52 10° NW 18:10:17 87° SW 18:14:24 10° SE visible
10 Oct - 06:10:08 10° SW 06:14:28 57° NW 06:19:05 10° NNE daylight
10 Oct - 16:37:04 10° NNE 16:39:37 15° NE 16:42:04 10° E daylight
10 Oct - 18:16:26 10° WNW 18:20:25 34° SW 18:24:10 10° SSE visible
11 Oct - 04:40:38 10° S 04:43:58 22° SE 04:47:27 10° ENE visible
11 Oct - 06:21:04 10° WSW 06:24:42 24° NW 06:28:31 10° N daylight
11 Oct - 16:45:47 10° NNW 16:49:53 34° NE 16:53:45 10° ESE daylight
11 Oct - 18:28:11 10° W 18:30:33 14° SW 18:32:51 10° SSW visible
